[[{"header":{"parameterUnit":"m.s-1","parameterCategory":1,"la1":30.2992,"la2":30.254,"lo1":-89.0895,"lo2":-89.0443,"dy":0.0025,"dx":0.0025,"nx":19,"ny":19,"refTime":"2026-03-16T09:00:00:Z","depth":0,"parameterNumber":2,"parameterNumberName":"U-component_of_WINDS"},"data":[0,0,0,1.0902,1.0903,1.0979,1.098,1.1075,1.1075,0,0,0,0,0,0,0,0,0,0,0,1.0876,1.0876,1.0901,1.0903,1.0979,1.098,1.1074,1.1075,0,0,0,0,0,0,0,0,0,0,0,1.0875,1.0876,1.0877,1.0903,1.0979,1.098,1.1074,1.1018,0,0,0,0,0,0,0,0,0,0,1.0945,1.0917,1.0876,1.0877,1.0904,1.0979,1.098,1.1015,1.1022,1.1039,0,1.1051,0,1.1065,1.1081,1.1082,0,0,0,1.0906,1.0912,1.0935,1.0877,1.0905,1.0979,1.0946,1.1019,1.1026,1.1047,1.1052,1.1056,1.1066,1.1082,1.1083,1.1168,1.1168,0,0,1.0902,1.0888,1.093,1.094,1.0926,1.0943,1.0948,1.1023,1.1029,1.1053,1.1058,1.1068,1.1083,1.1083,1.1168,1.1168,0,0,0,1.0888,1.0885,1.0907,1.0936,1.0949,1.0945,1.0951,1.1026,1.1034,1.106,1.1069,1.1083,1.1084,1.1167,1.1168,1.1167,0,0,0,1.0885,1.0877,1.0905,1.0897,1.0948,1.0988,1.0952,1.1029,1.1038,1.1068,1.1083,1.1085,1.1167,1.1168,1.1167,1.1169,0,0,0,1.0872,1.0875,1.0885,1.0896,1.0928,1.0987,1.1,1.1031,1.1043,1.1082,1.1085,1.1167,1.1167,1.1166,1.1169,1.1189,0,0,0,1.0854,1.0883,1.0884,1.0921,1.0927,1.0986,1.1,1.1044,1.1077,1.1084,1.1167,1.1168,1.1166,1.1168,1.1188,1.1203,1.1208,0,0,1.0883,1.0886,1.0909,1.0913,1.0967,1.0975,1.1031,1.1075,1.1092,1.1142,1.1144,1.1167,1.1168,1.1188,1.1238,1.1242,0,0,0,1.0914,1.093,1.0948,1.0978,1.1011,1.1041,1.1078,1.1095,1.1138,1.1114,1.1179,1.1181,1.1193,1.1201,1.1204,1.1217,1.117,1.117,1.117,1.0935,1.0955,1.0995,1.1024,1.1054,1.1092,1.1119,1.1148,1.1159,1.1175,1.119,1.1217,1.1226,1.1229,1.1241,1.1199,1.1199,1.1199,1.1199,1.0981,1.1007,1.1023,1.1067,1.1089,1.1127,1.1166,1.1173,1.1213,1.1207,1.1219,1.1212,1.1232,1.1244,1.1199,1.1199,1.1199,1.1199,1.1199,1.0997,1.1014,1.1033,1.108,1.1114,1.1144,1.1182,1.12,1.1218,1.123,1.1249,1.1249,1.1252,1.1238,1.1238,1.1238,1.1238,1.1238,1.1238,1.1007,1.1029,1.1058,1.1097,1.112,1.1152,1.1192,1.1216,1.1247,1.1258,1.1258,1.127,1.123,1.1219,1.124,1.1239,1.1239,1.1239,1.1239,1.1047,1.1041,1.1085,1.1108,1.1157,1.1191,1.1214,1.1261,1.1284,1.1302,1.1311,1.1278,1.1283,1.1281,1.1273,1.1306,1.1306,1.1306,1.1306,1.1061,1.1065,1.1116,1.1151,1.1188,1.1215,1.1266,1.1299,1.1332,1.1347,1.1345,1.1336,1.1333,1.134,1.1336,1.1329,1.1376,1.1376,1.1376,1.1087,1.1096,1.1135,1.1166,1.1207,1.1241,1.1291,1.1333,1.137,1.1379,1.1361,1.1358,1.1343,1.1337,1.1345,1.1339,1.1327,0,0]},{"header":{"parameterUnit":"m.s-1","parameterCategory":1,"la1":30.2992,"la2":30.254,"lo1":-89.0895,"lo2":-89.0443,"dy":0.0025,"dx":0.0025,"nx":19,"ny":19,"refTime":"2026-03-16T09:00:00:Z","depth":0,"parameterNumber":3,"parameterNumberName":"V-component_of_WINDS"},"data":[0,0,0,-3.6648,-3.6649,-3.6707,-3.6708,-3.6769,-3.6769,0,0,0,0,0,0,0,0,0,0,0,-3.6625,-3.6625,-3.6648,-3.665,-3.6707,-3.6708,-3.6769,-3.6769,0,0,0,0,0,0,0,0,0,0,0,-3.6624,-3.6625,-3.6625,-3.665,-3.6707,-3.6708,-3.6769,-3.6729,0,0,0,0,0,0,0,0,0,0,-3.6675,-3.6647,-3.6625,-3.6625,-3.665,-3.6707,-3.6708,-3.6727,-3.6732,-3.6738,0,-3.6742,0,-3.6757,-3.6773,-3.6773,0,0,0,-3.6654,-3.6643,-3.6665,-3.6625,-3.665,-3.6707,-3.6682,-3.673,-3.6735,-3.6743,-3.6743,-3.6746,-3.6758,-3.6773,-3.6773,-3.6798,-3.6798,0,0,-3.6651,-3.6631,-3.6662,-3.6668,-3.666,-3.6681,-3.6684,-3.6733,-3.6731,-3.6744,-3.6748,-3.6759,-3.6773,-3.6774,-3.6798,-3.6798,0,0,0,-3.6639,-3.6628,-3.6649,-3.6665,-3.6677,-3.6682,-3.6686,-3.6729,-3.6738,-3.6748,-3.676,-3.6774,-3.6774,-3.6799,-3.6798,-3.6776,0,0,0,-3.6637,-3.6621,-3.6648,-3.6636,-3.6676,-3.6704,-3.6681,-3.6734,-3.6741,-3.6759,-3.6774,-3.6775,-3.6799,-3.6798,-3.6777,-3.6768,0,0,0,-3.6623,-3.662,-3.6626,-3.6635,-3.666,-3.6704,-3.6715,-3.6736,-3.6747,-3.6773,-3.6775,-3.6799,-3.6798,-3.6778,-3.6769,-3.677,0,0,0,-3.6602,-3.6603,-3.6626,-3.6632,-3.6659,-3.669,-3.6715,-3.6739,-3.6758,-3.6774,-3.6799,-3.6798,-3.6778,-3.677,-3.677,-3.6766,-3.6763,0,0,-3.6593,-3.6602,-3.6607,-3.6629,-3.6651,-3.6683,-3.6702,-3.6737,-3.6756,-3.6783,-3.6784,-3.6777,-3.6769,-3.677,-3.6751,-3.6748,0,0,0,-3.6598,-3.6601,-3.6612,-3.6631,-3.666,-3.6684,-3.6719,-3.6732,-3.6757,-3.6766,-3.6778,-3.6774,-3.6775,-3.6774,-3.6771,-3.6774,-3.6797,-3.6797,-3.6797,-3.6555,-3.6583,-3.6594,-3.6629,-3.6647,-3.6685,-3.6702,-3.6726,-3.6746,-3.6749,-3.6756,-3.6742,-3.674,-3.6738,-3.674,-3.6757,-3.6757,-3.6757,-3.6757,-3.6544,-3.6554,-3.6584,-3.6606,-3.6635,-3.6653,-3.669,-3.6705,-3.6725,-3.6738,-3.674,-3.6751,-3.6734,-3.6738,-3.6755,-3.6755,-3.6756,-3.6756,-3.6756,-3.6518,-3.6528,-3.6547,-3.6579,-3.6601,-3.6636,-3.6656,-3.6681,-3.6704,-3.6707,-3.6718,-3.6718,-3.6722,-3.6711,-3.6711,-3.6711,-3.671,-3.671,-3.671,-3.6484,-3.6506,-3.652,-3.6554,-3.6571,-3.6596,-3.6637,-3.6653,-3.6678,-3.6695,-3.6695,-3.6715,-3.6728,-3.6731,-3.671,-3.671,-3.671,-3.671,-3.671,-3.6461,-3.6471,-3.6493,-3.6511,-3.6553,-3.6574,-3.6608,-3.664,-3.6658,-3.6667,-3.6688,-3.6694,-3.6703,-3.6706,-3.6708,-3.6682,-3.6682,-3.6682,-3.6682,-3.6439,-3.6448,-3.6478,-3.6504,-3.6533,-3.6567,-3.6591,-3.6623,-3.6657,-3.667,-3.6677,-3.6683,-3.6684,-3.6693,-3.6696,-3.6698,-3.667,-3.667,-3.667,-3.6427,-3.644,-3.6456,-3.6492,-3.6529,-3.6559,-3.6583,-3.6611,-3.6652,-3.667,-3.668,-3.6681,-3.669,-3.6691,-3.6708,-3.6711,-3.6716,0,0]}]]